This is the latest recevied weather packets stored in our database for station/object WX7FGZ-5. If no packets are shown the sender has not sent any weather packets the latest 10 day(s).
| Time | Temp. | Humidity | Pressure | Rain* | Wind** | Luminosity | Snow |
|---|---|---|---|---|---|---|---|
| 1777941303 | 11.67° C | 43% | 1018.2 hPa | 0 mm | - | 206 W/m² | - |
| 1777940815 | 12.22° C | 43% | 1018.2 hPa | 0 mm | - | 220 W/m² | - |
| 1777940518 | 12.22° C | 43% | 1018.1 hPa | 0 mm | - | 153 W/m² | - |
| 1777940187 | 12.22° C | 43% | 1018 hPa | 0 mm | - | 403 W/m² | - |
| 1777939891 | 12.22° C | 43% | 1018 hPa | 0 mm | - | 260 W/m² | - |
| 1777939587 | 12.22° C | 42% | 1018.2 hPa | 0 mm | - | 260 W/m² | - |
| 1777939293 | 12.78° C | 42% | 1018.2 hPa | 0 mm | - | 311 W/m² | - |
| 1777938987 | 12.22° C | 43% | 1018.1 hPa | 0 mm | - | 221 W/m² | - |
| 1777938388 | 12.78° C | 41% | 1018.2 hPa | 0 mm | - | 417 W/m² | - |
| 1777937787 | 13.33° C | 40% | 1018.2 hPa | 0 mm | - | 343 W/m² | - |
| 1777937488 | 13.33° C | 40% | 1018.1 hPa | 0 mm | - | 482 W/m² | - |
| 1777936887 | 13.33° C | 39% | 1018 hPa | 0 mm | - | 274 W/m² | - |
| 1777935987 | 13.89° C | 37% | 1017.9 hPa | 0 mm | - | 387 W/m² | - |
| 1777935387 | 13.89° C | 37% | 1017.8 hPa | 0 mm | - | 758 W/m² | - |
| 1777935087 | 13.89° C | 36% | 1017.9 hPa | 0 mm | - | 401 W/m² | - |
| 1777934788 | 13.89° C | 37% | 1017.9 hPa | 0 mm | - | 601 W/m² | - |
| 1777933888 | 13.33° C | 37% | 1017.9 hPa | 0 mm | - | 714 W/m² | - |
| 1777933824 | 13.33° C | 37% | 1017.8 hPa | 0 mm | - | 580 W/m² | - |
| 1777933587 | 13.33° C | 37% | 1017.8 hPa | 0 mm | - | 580 W/m² | - |
| 1777933146 | 13.33° C | 35% | 1018 hPa | 0 mm | - | 596 W/m² | - |
| 1777932843 | 13.33° C | 35% | 1018 hPa | 0 mm | - | 533 W/m² | - |
| 1777932544 | 13.89° C | 36% | 1018.2 hPa | 0 mm | - | 673 W/m² | - |
| 1777932231 | 13.33° C | 35% | 1019 hPa | 0 mm | - | 517 W/m² | - |
| 1777931964 | 13.89° C | 35% | 1019.1 hPa | 0 mm | - | 606 W/m² | - |
| 1777931943 | 13.33° C | 35% | 1019 hPa | 0 mm | - | 517 W/m² | - |
* Rain latest hour (hover to see other rain measurements)
** Current wind speed in m/s (hover to see current wind gust speed)